Regional Weather Roundup
Issued by NWS

Home | Current Version | Previous Version | Graphics & Text | Print | Product List | Glossary On
Versions: 1 2 3 4 5 6 7 8 9 10 11 12 13 14 15 16 17 18 19 20 21 22 23 24 25 26
000
ASUS45 KSLC 130010
RWRUT

UTAH REGIONAL WEATHER ROUNDUP
NATIONAL WEATHER SERVICE SALT LAKE CITY UT
500 PM MST TUE DEC 12 2017

UTZ001>011-023>025-130100-

NORTHERN UTAH

CITY           SKY/WX    TMP DP  RH WIND       PRES   REMARKS
BRIGHAM CITY   CLOUDY    25  22  90 CALM      30.48S
DUGWAY         CLEAR     30  20  66 W5        30.44F WCI  25
6HR MIN TEMP:  28; 6HR MAX TEMP:  35;

HILL AFB       CLEAR     25  22  88 W3        30.43F FOG
LOGAN          CLEAR     25  20  81 CALM      30.44F
OGDEN          MOCLDY    26  24  92 CALM      30.44F FOG
SALT LAKE CITY FOG       26  25  96 VRB5      30.46F VSB 1/4 WCI  20
TOOELE VALLEY  CLOUDY    27  25  93 CALM      30.46F FOG
WENDOVER       CLEAR     27  16  63 CALM      30.46F
HEBER CITY       N/A     30  14  51 CALM      30.36F
WEST JORDAN    CLEAR     24  24  99 NW7       30.45F WCI  16

$$

UTZ011>015-024>027-130100-

CENTRAL/NORTHEAST UTAH

CITY           SKY/WX    TMP DP  RH WIND       PRES   REMARKS
PROVO AIRPORT  CLEAR     31  25  78 N7        30.43F HAZE    WCI  24
MOAB/CANYONLAN CLEAR     44   3  18 N7        30.34F
DELTA          CLEAR     36  14  41 NW3       30.40F
PRICE          CLEAR     45   3  17 SE6       30.35F
RICHFIELD      CLEAR     43   3  19 CALM      30.38S
ROOSEVELT      CLOUDY    39   9  28 CALM      30.40F
VERNAL         CLEAR     39  10  30 CALM      30.37F

$$

UTZ013>016-019>022-027-130100-

SOUTHERN UTAH

CITY           SKY/WX    TMP DP  RH WIND       PRES   REMARKS
BRYCE CANYON   CLEAR     47   3  16 SE3       30.40S
CEDAR CITY     CLEAR     43   7  22 W5        30.35F
MILFORD        CLEAR     40  15  36 N8        30.38F WCI  34
ST GEORGE      CLEAR     55   6  14 N5        30.25F
HANKSVILLE       N/A     46   3  17 NW3       30.36F
KANAB          CLEAR     55   7  14 NE7       30.34S
BLANDING         N/A     43   3  19 S3        30.40F

$$

REGIONAL REPORTS     COLORADO/ARIZONA

CITY           SKY/WX    TMP DP  RH WIND       PRES   REMARKS
CRAIG, CO      CLOUDY    29  21  72 S3        30.35F
GRAND JUNCTION CLEAR     46  11  24 NW5       30.33F
RIFLE, CO      CLEAR     40  12  32 S8        30.34F WCI  34
MONTROSE, CO   CLEAR     46  10  23 NE3       30.36F
CORTEZ, CO     CLEAR     40   4  22 W3        30.34S
COLORADO CITY    N/A     61   9  12 CALM      30.31S
PAGE, AZ       CLEAR     47  17  30 CALM      30.33F
GRAND CANYON   CLEAR     50   8  18 E7        30.35F
KINGMAN, AZ    CLEAR     62   3   9 E5        30.21F
FLAGSTAFF, AZ  CLEAR     45   0  15 E7        30.35S

$$

REGIONAL REPORTS    NEVADA/IDAHO/WYOMING

CITY           SKY/WX    TMP DP  RH WIND       PRES   REMARKS
LAS VEGAS, NV  PTCLDY    67   1   7 SW3       30.19F
ELY, NY        CLEAR     51   0  12 NW5       30.37F
ELKO, NV       CLEAR     36  21  54 SW3       30.41F
POCATELLO, ID  CLOUDY    27  21  78 CALM      30.42F
BURLEY, ID     FOG       24  20  84 W7        30.45R VSB 1/2 WCI  16
FORT BRIDGER,    N/A     46   6  19 W15       30.38F
EVANSTON, WY   CLOUDY    42   9  25 SW9       30.39F
ROCK SPRINGS,  CLOUDY    43   5  20 W14       30.33F

$$




USA.gov is the U.S. government's official web portal to all federal, state and local government web resources and services.